Waarnemingen

Advertentie
Mijn weer
Gaddede A, Zweden (2219): temperatuur & dauwpunt: 14.08.2018 19:00:00 - 20.08.2018 19:00:00 (CEST)Gaddede A, Zweden (2219): windsnelheid & windstoten: 14.08.2018 19:00:00 - 20.08.2018 19:00:00 (CEST)Gaddede A, Zweden (2219): windrichting: 14.08.2018 19:00:00 - 20.08.2018 19:00:00 (CEST)Gaddede A, Zweden (2219): luchtdruk: 14.08.2018 19:00:00 - 20.08.2018 19:00:00 (CEST)Gaddede A, Zweden (2219): zicht: 14.08.2018 19:00:00 - 20.08.2018 19:00:00 (CEST)Gaddede A, Zweden (2219): neerslag: 14.08.2018 19:00:00 - 20.08.2018 19:00:00 (CEST)
Datum & Tijd tt [°C] td [°C] ff [km/u] ff [kn] fx [km/u] fx [kn] dd ppp [hPa] vv [km] rr [mm]
20.08.2018 19:00:00 - - - - - - - - - -
20.08.2018 18:00:00 8,0 5,3 11 6 30 16 WNW 1010,2 50 -
20.08.2018 17:00:00 10,6 5,4 14 8 35 19 WNW 1009,4 43 -
20.08.2018 16:00:00 8,9 5,1 10 5 35 19 NW 1009,7 50 0,0
20.08.2018 15:00:00 8,1 6,6 14 7 31 17 WNW 1009,9 17 -
20.08.2018 14:00:00 10,0 5,2 9 5 32 18 WNW 1008,9 50 -
20.08.2018 13:00:00 10,0 5,4 10 6 23 12 WNW 1008,7 50 -
20.08.2018 12:00:00 9,7 7,0 11 6 24 13 WNW 1008,9 47 0,0
20.08.2018 11:00:00 9,0 5,7 13 7 31 17 W 1009,0 50 -
20.08.2018 10:00:00 9,6 6,5 13 7 27 14 W 1008,5 50 -
20.08.2018 09:00:00 7,6 6,1 11 6 27 15 W 1008,8 50 -
20.08.2018 08:00:00 7,0 5,8 9 5 23 12 WNW 1008,8 50 -
20.08.2018 07:00:00 6,9 5,5 11 6 29 16 WNW 1008,7 50 -
20.08.2018 06:00:00 6,5 5,1 15 8 34 18 W 1008,5 50 -
20.08.2018 05:00:00 6,5 5,3 14 7 33 18 W 1008,8 46 -
20.08.2018 04:00:00 6,4 5,4 14 8 35 19 WNW 1008,8 48 -
20.08.2018 03:00:00 6,1 4,7 16 9 36 19 W 1008,6 45 -
20.08.2018 02:00:00 6,4 4,7 17 9 37 20 WNW 1008,8 47 -
20.08.2018 01:00:00 6,3 4,8 10 5 32 18 W 1008,8 50 -
20.08.2018 00:00:00 6,4 4,9 12 6 37 20 W 1008,7 34 -
19.08.2018 23:00:00 6,5 5,1 17 9 41 22 W 1008,2 27 -
19.08.2018 22:00:00 6,6 5,2 17 9 39 21 W 1008,5 30 -
19.08.2018 21:00:00 6,8 5,4 16 9 47 25 W 1008,4 45 0,0
19.08.2018 20:00:00 7,1 5,6 17 9 63 34 W 1008,1 40 0,0
19.08.2018 19:00:00 8,3 5,2 22 12 56 30 W 1007,4 50 -
19.08.2018 18:00:00 9,1 7,1 20 11 45 24 W 1007,5 50 0,0
19.08.2018 17:00:00 11,0 7,9 18 10 46 25 W 1006,8 42 -
19.08.2018 16:00:00 8,5 7,6 13 7 49 26 W 1007,3 19 -
19.08.2018 15:00:00 10,8 7,1 23 12 58 31 W 1006,0 46 0,0
19.08.2018 14:00:00 10,2 8,5 17 9 45 24 W 1005,7 26 -
19.08.2018 13:00:00 7,6 6,9 19 11 49 26 W 1005,8 11 -
19.08.2018 12:00:00 8,8 6,8 16 9 48 26 W 1004,5 49 0,0
19.08.2018 11:00:00 8,3 6,9 17 9 42 23 W 1004,0 49 -
19.08.2018 10:00:00 7,5 6,9 17 9 49 27 W 1003,5 14 -
19.08.2018 09:00:00 7,4 7,1 15 8 42 23 WNW 1002,4 12 -
19.08.2018 08:00:00 7,5 7,1 18 10 51 28 W 1001,7 50 -
19.08.2018 07:00:00 7,3 7,0 16 8 42 23 W 1001,1 18 0,0
19.08.2018 06:00:00 7,4 7,1 11 6 34 18 W 1001,1 14 -
19.08.2018 05:00:00 7,6 7,3 10 5 34 18 W 1000,6 50 -
19.08.2018 04:00:00 7,7 7,4 10 5 34 18 W 999,3 44 -
19.08.2018 03:00:00 7,9 7,6 14 7 32 18 W 999,1 11 -
19.08.2018 02:00:00 7,9 7,5 10 5 27 15 W 999,0 50 0,0
19.08.2018 01:00:00 7,5 6,9 5 3 16 9 W 998,8 50 0,0
19.08.2018 00:00:00 7,0 6,7 4 2 13 7 NO 998,8 50 -
18.08.2018 23:00:00 8,0 7,9 7 4 23 12 W 999,2 2,3 -
18.08.2018 22:00:00 8,2 7,6 12 6 21 12 N 998,1 16 -
18.08.2018 21:00:00 8,3 8,0 11 6 30 16 NW 998,2 11 -
18.08.2018 20:00:00 9,6 8,0 11 6 28 15 W 997,3 50 0,0
18.08.2018 19:00:00 11,0 9,8 6 3 16 9 OZO 997,3 34 -
18.08.2018 18:00:00 10,8 9,6 10 6 24 13 OZO 998,4 29 -
18.08.2018 17:00:00 11,1 9,5 8 4 24 13 ZO 999,3 40 -
18.08.2018 16:00:00 11,2 9,1 11 6 26 14 OZO 1000,5 48 0,0
18.08.2018 15:00:00 10,8 8,9 10 5 23 12 OZO 1001,2 32 -
18.08.2018 14:00:00 10,7 8,5 11 6 21 12 OZO 1001,9 14 -
18.08.2018 13:00:00 12,1 7,6 13 7 35 19 ZZO 1002,1 50 -
18.08.2018 12:00:00 11,2 8,6 15 8 32 18 OZO 1002,4 50 -
18.08.2018 11:00:00 10,2 8,6 15 8 32 18 OZO 1002,9 50 -
18.08.2018 10:00:00 11,1 7,6 11 6 25 14 OZO 1003,2 49 -
18.08.2018 09:00:00 10,6 7,8 13 7 27 15 O 1004,4 50 -
18.08.2018 08:00:00 10,4 7,3 13 7 23 13 O 1005,5 50 -
18.08.2018 07:00:00 8,8 7,2 11 6 22 12 O 1006,5 50 -
18.08.2018 06:00:00 7,5 7,4 9 5 15 8 ONO 1007,7 50 -
18.08.2018 05:00:00 5,9 5,8 5 3 11 6 O 1008,4 50 0,0
18.08.2018 04:00:00 8,1 7,7 8 4 11 6 ONO 1008,2 50 0,0
18.08.2018 03:00:00 7,5 7,5 3 2 10 6 O 1008,8 49 0,0
18.08.2018 02:00:00 6,3 6,2 3 2 8 5 ONO 1009,3 50 -
18.08.2018 01:00:00 6,0 5,9 4 2 7 4 O 1009,5 50 -
18.08.2018 00:00:00 6,1 6,0 5 3 9 5 O 1008,6 50 -
17.08.2018 23:00:00 7,2 7,1 5 3 9 5 O 1007,9 50 -
17.08.2018 22:00:00 7,0 6,7 4 2 8 5 ONO 1007,8 50 -
17.08.2018 21:00:00 9,4 7,8 6 3 15 8 ONO 1006,5 50 -
17.08.2018 20:00:00 10,1 9,3 9 5 20 11 WNW 1007,1 50 -
17.08.2018 19:00:00 11,0 9,8 9 5 25 13 WNW 1006,3 50 -
17.08.2018 18:00:00 12,4 10,5 10 5 22 12 N 1005,5 26 -
17.08.2018 17:00:00 13,5 11,4 11 6 25 13 WNW 1005,2 50 -
17.08.2018 16:00:00 13,8 9,6 7 4 16 9 W 1004,4 50 -
17.08.2018 15:00:00 14,9 11,3 9 5 31 17 WNW 1004,1 48 -
17.08.2018 14:00:00 14,2 10,0 11 6 30 16 WNW 1004,3 48 -
17.08.2018 13:00:00 13,7 10,3 6 3 17 9 NW 1003,7 37 -
17.08.2018 12:00:00 15,2 9,1 5 3 10 5 W 1003,5 50 -
17.08.2018 11:00:00 14,0 8,0 3 2 9 5 NW 1004,5 42 -
17.08.2018 10:00:00 13,4 9,3 4 2 12 6 WNW 1004,7 50 -
17.08.2018 09:00:00 12,8 9,6 4 2 8 5 NW 1004,5 50 -
17.08.2018 08:00:00 11,6 10,2 4 2 14 8 WNW 1004,5 50 -
17.08.2018 07:00:00 10,2 9,4 3 2 24 13 ZZW 1004,5 50 0,0
17.08.2018 06:00:00 11,9 11,0 4 2 22 12 WZW 1003,1 50 0,0
17.08.2018 05:00:00 12,0 11,2 7 4 26 14 WZW 1002,4 32 -
17.08.2018 04:00:00 12,0 11,5 5 3 24 13 WZW 1002,0 20 -
17.08.2018 03:00:00 15,1 11,9 16 9 35 19 ZZO 1001,0 34 -
17.08.2018 02:00:00 15,7 12,1 13 7 39 21 ZO 1001,0 50 -
17.08.2018 01:00:00 15,4 12,2 13 7 40 22 ZO 1001,5 50 -
17.08.2018 00:00:00 15,5 12,3 16 8 32 18 OZO 1001,9 50 -
16.08.2018 23:00:00 15,4 12,7 9 5 28 15 ZO 1002,6 50 0,0
16.08.2018 22:00:00 15,3 13,1 7 4 27 15 ZZO 1003,1 50 -
16.08.2018 21:00:00 15,2 13,4 10 6 27 15 ZO 1003,2 50 -
16.08.2018 20:00:00 14,4 13,7 11 6 26 14 OZO 1003,7 8 0,0
16.08.2018 19:00:00 14,9 13,1 11 6 29 16 OZO 1004,0 47 -
16.08.2018 18:00:00 14,7 12,9 15 8 30 16 OZO 1004,6 41 0,0
16.08.2018 17:00:00 14,4 12,8 16 9 32 17 OZO 1005,0 35 0,0
16.08.2018 16:00:00 14,8 12,3 13 7 29 15 ZO 1005,4 38 0,0
16.08.2018 15:00:00 15,2 12,9 11 6 23 12 OZO 1005,7 45 0,0
16.08.2018 14:00:00 14,5 12,4 10 6 25 13 OZO 1006,1 32 0,0
16.08.2018 13:00:00 15,0 11,6 11 6 28 15 OZO 1006,0 50 -
16.08.2018 12:00:00 14,5 11,1 13 7 30 16 OZO 1006,0 50 -
16.08.2018 11:00:00 13,5 10,7 11 6 28 15 O 1006,6 50 -
16.08.2018 10:00:00 14,0 10,6 13 7 30 16 O 1006,2 50 -
16.08.2018 09:00:00 12,8 10,0 14 8 29 15 O 1006,5 50 -
16.08.2018 08:00:00 12,5 9,9 14 7 24 13 O 1006,6 50 0,0
16.08.2018 07:00:00 12,0 9,2 13 7 29 15 O 1006,8 50 0,0
16.08.2018 06:00:00 12,2 9,0 14 8 28 15 OZO 1006,7 50 -
16.08.2018 05:00:00 12,4 8,9 10 5 28 15 OZO 1006,9 50 -
16.08.2018 04:00:00 12,2 9,0 13 7 27 15 O 1007,1 50 -
16.08.2018 03:00:00 12,3 9,1 13 7 22 12 O 1007,1 50 -
16.08.2018 02:00:00 12,2 9,4 12 7 19 10 O 1007,6 50 -
16.08.2018 01:00:00 11,7 9,8 6 4 13 7 ONO 1008,4 50 -
16.08.2018 00:00:00 11,3 9,7 8 5 14 7 ONO 1008,4 50 -
15.08.2018 23:00:00 10,7 10,4 4 2 8 4 ONO 1009,1 48 -
15.08.2018 22:00:00 11,2 10,7 5 3 9 5 O 1008,7 50 0,0
15.08.2018 21:00:00 12,0 11,2 5 3 12 7 ONO 1008,6 50 -
15.08.2018 20:00:00 12,2 11,6 6 4 14 7 NW 1008,9 29 -
15.08.2018 19:00:00 13,1 11,7 10 5 25 14 WZW 1008,4 7 0,0
15.08.2018 18:00:00 15,3 10,7 13 7 31 17 O 1007,2 47 0,0
15.08.2018 17:00:00 15,9 10,2 13 7 26 14 OZO 1007,0 50 -
15.08.2018 16:00:00 16,2 10,3 17 9 28 15 OZO 1007,3 41 -
15.08.2018 15:00:00 16,0 9,9 14 8 29 15 OZO 1007,6 50 -
15.08.2018 14:00:00 14,4 9,4 16 8 36 19 OZO 1008,0 46 -
15.08.2018 13:00:00 12,8 8,9 21 11 37 20 O 1008,3 45 -
15.08.2018 12:00:00 11,7 8,9 16 9 33 18 OZO 1008,8 50 -
15.08.2018 11:00:00 10,9 8,3 12 7 29 16 OZO 1009,1 50 -
15.08.2018 10:00:00 9,4 7,7 16 9 30 16 OZO 1009,5 48 -
15.08.2018 09:00:00 10,1 7,3 10 5 19 10 OZO 1009,1 48 -
15.08.2018 08:00:00 8,4 6,2 8 4 19 10 O 1009,5 50 -
15.08.2018 07:00:00 8,5 5,6 7 4 16 8 OZO 1009,5 50 -
15.08.2018 06:00:00 7,9 5,4 5 3 13 7 O 1009,6 50 -
15.08.2018 05:00:00 8,0 5,1 7 4 17 9 ONO 1009,6 50 -
15.08.2018 04:00:00 8,5 4,9 10 5 21 11 O 1009,6 50 -
15.08.2018 03:00:00 8,8 4,6 8 5 20 11 O 1009,4 50 -
15.08.2018 02:00:00 9,2 4,6 11 6 25 14 O 1009,5 50 -
15.08.2018 01:00:00 9,3 4,5 12 7 25 13 O 1009,6 50 -
15.08.2018 00:00:00 9,3 4,5 13 7 26 14 O 1009,6 50 -
14.08.2018 23:00:00 9,3 4,5 12 7 27 15 O 1009,5 50 -
14.08.2018 22:00:00 9,6 4,8 13 7 26 14 O 1009,4 50 -
14.08.2018 21:00:00 9,7 5,1 12 6 24 13 O 1009,4 50 -
14.08.2018 20:00:00 10,4 5,2 12 6 23 13 O 1009,2 50 -
14.08.2018 19:00:00 11,2 5,3 12 6 23 12 O 1008,8 50 -

tt = temperatuur
td = dauwpunt
ff = windsnelheid
fx = windstoten
dd = windrichting
ppp = luchtdruk
vv = zicht
rr = neerslag

Weerstations in de omgeving